When you browse on this site, cookies collect data to enhance your experience and personalize the content and advertising you see.
Visit our Privacy Policy to learn more. By continuing to use the site, you agree to this use of cookies and data.
  • En España
  • Lista de países
  • Para 7 días
  • Temperatura del agua
  • Mapa Satelital
  • El tiempo en el mapa
  • Informadores
  • user-avatar
    Iniciar sesión

    Tiempo cada hora Stahanovo

    Hoy, 23 Marzo, Sábado

    Tiempo Temperatura Precipitaciones Viento Presión Humedad
    00:00 -5°C° 0.1 mm 6 mps 737 mmHg 86%
    01:00 -4°C° 0.1 mm 6 mps 737 mmHg 86%
    02:00 -4°C° 0 mm 5 mps 737 mmHg 90%
    03:00 -4°C° 0 mm 5 mps 738 mmHg 90%
    04:00 -4°C° 0 mm 5 mps 738 mmHg 90%
    05:00 -4°C° 0 mm 6 mps 738 mmHg 91%
    06:00 -3°C° 0.1 mm 6 mps 739 mmHg 91%
    07:00 -3°C° 0.1 mm 6 mps 740 mmHg 92%
    08:00 -3°C° 0 mm 6 mps 741 mmHg 92%
    09:00 -3°C° 0 mm 6 mps 742 mmHg 92%
    10:00 -3°C° 0 mm 6 mps 742 mmHg 93%
    11:00 -1°C° 0 mm 5 mps 743 mmHg 93%
    12:00 -1°C° 0.1 mm 5 mps 743 mmHg 93%
    13:00 -1°C° 0.1 mm 5 mps 743 mmHg 92%
    14:00 -1°C° 0.1 mm 5 mps 744 mmHg 92%
    15:00 -1°C° 0 mm 4 mps 744 mmHg 90%
    16:00 -1°C° 0 mm 4 mps 744 mmHg 88%
    17:00 -2°C° 0 mm 4 mps 744 mmHg 86%
    18:00 -1°C° 0 mm 3 mps 744 mmHg 87%
    19:00 -1°C° 0 mm 3 mps 744 mmHg 88%
    20:00 -1°C° 0 mm 3 mps 744 mmHg 89%
    21:00 -2°C° 0 mm 2 mps 744 mmHg 89%
    22:00 -2°C° 0 mm 2 mps 744 mmHg 89%
    23:00 0°C° 0 mm 1 mps 744 mmHg 90%

    Mañana, 24 Marzo, Domingo

    Tiempo Temperatura Precipitaciones Viento Presión Humedad
    00:00 0°C° 0 mm 1 mps 743 mmHg 88%
    01:00 0°C° 0 mm 1 mps 743 mmHg 87%
    02:00 -1°C° 0 mm 1 mps 743 mmHg 86%
    03:00 -1°C° 0 mm 1 mps 742 mmHg 86%
    04:00 -2°C° 0 mm 1 mps 742 mmHg 86%
    05:00 -5°C° 0 mm 2 mps 741 mmHg 87%
    06:00 -4°C° 0 mm 2 mps 741 mmHg 87%
    07:00 -4°C° 0 mm 3 mps 740 mmHg 87%
    08:00 -2°C° 0 mm 3 mps 740 mmHg 87%
    09:00 -3°C° 0.2 mm 4 mps 739 mmHg 90%
    10:00 -2°C° 0.2 mm 4 mps 739 mmHg 93%
    11:00 -2°C° 0.2 mm 4 mps 738 mmHg 96%
    12:00 -2°C° 0.3 mm 4 mps 738 mmHg 97%
    13:00 -2°C° 0.3 mm 5 mps 737 mmHg 97%
    14:00 -1°C° 0.3 mm 5 mps 736 mmHg 98%
    15:00 -1°C° 0.1 mm 4 mps 736 mmHg 97%
    16:00 -1°C° 0.1 mm 4 mps 736 mmHg 97%
    17:00 0°C° 0.1 mm 3 mps 735 mmHg 96%
    18:00 0°C° 0 mm 3 mps 736 mmHg 94%
    19:00 -1°C° 0 mm 3 mps 736 mmHg 92%
    20:00 -1°C° 0 mm 3 mps 736 mmHg 90%
    21:00 -2°C° 0 mm 3 mps 736 mmHg 89%
    22:00 -2°C° 0 mm 3 mps 736 mmHg 88%
    23:00 -4°C° 0 mm 3 mps 736 mmHg 87%

    Pasado mañana, 25 Marzo, Lunes

    Tiempo Temperatura Precipitaciones Viento Presión Humedad
    00:00 -4°C° 0 mm 3 mps 736 mmHg 88%
    01:00 -5°C° 0 mm 3 mps 737 mmHg 88%
    02:00 -5°C° 0 mm 3 mps 737 mmHg 88%
    03:00 -5°C° 0 mm 3 mps 737 mmHg 88%
    04:00 -5°C° 0 mm 3 mps 737 mmHg 88%
    05:00 -6°C° 0 mm 3 mps 737 mmHg 88%
    06:00 -5°C° 0 mm 3 mps 737 mmHg 86%
    07:00 -4°C° 0 mm 4 mps 737 mmHg 84%
    08:00 -3°C° 0 mm 4 mps 737 mmHg 82%
    09:00 -1°C° 0 mm 3 mps 737 mmHg 84%
    10:00 0°C° 0 mm 3 mps 737 mmHg 86%
    11:00 0°C° 0 mm 3 mps 737 mmHg 88%
    12:00 +1°C° 0 mm 3 mps 737 mmHg 87%
    13:00 +1°C° 0 mm 3 mps 737 mmHg 85%
    14:00 +2°C° 0 mm 3 mps 737 mmHg 83%
    15:00 +1°C° 0 mm 3 mps 737 mmHg 82%
    16:00 +1°C° 0 mm 3 mps 737 mmHg 82%
    17:00 0°C° 0 mm 3 mps 737 mmHg 81%
    18:00 -1°C° 0 mm 3 mps 737 mmHg 82%
    19:00 -1°C° 0 mm 3 mps 737 mmHg 83%
    20:00 -2°C° 0 mm 3 mps 738 mmHg 83%
    21:00 -2°C° 0 mm 3 mps 738 mmHg 83%
    22:00 -2°C° 0 mm 3 mps 737 mmHg 83%
    23:00 -4°C° 0 mm 3 mps 737 mmHg 83%

    26 Marzo, Martes

    Tiempo Temperatura Precipitaciones Viento Presión Humedad
    00:00 -4°C° 0 mm 3 mps 737 mmHg 83%
    01:00 -4°C° 0 mm 3 mps 737 mmHg 82%
    02:00 -4°C° 0 mm 3 mps 737 mmHg 82%
    03:00 -3°C° 0 mm 4 mps 737 mmHg 84%
    04:00 -3°C° 0 mm 4 mps 736 mmHg 86%
    05:00 -3°C° 0 mm 4 mps 736 mmHg 88%
    06:00 -3°C° 0.1 mm 4 mps 736 mmHg 88%
    07:00 -2°C° 0.1 mm 4 mps 736 mmHg 89%
    08:00 -1°C° 0.1 mm 3 mps 736 mmHg 90%
    09:00 -1°C° 0.2 mm 4 mps 735 mmHg 91%
    10:00 -1°C° 0.2 mm 4 mps 735 mmHg 93%
    11:00 0°C° 0.2 mm 4 mps 734 mmHg 94%
    12:00 0°C° 0 mm 4 mps 734 mmHg 93%
    13:00 0°C° 0 mm 4 mps 733 mmHg 93%
    14:00 +1°C° 0 mm 4 mps 733 mmHg 92%
    15:00 0°C° 0.3 mm 4 mps 732 mmHg 93%
    16:00 0°C° 0.3 mm 4 mps 732 mmHg 94%
    17:00 -1°C° 0.3 mm 4 mps 732 mmHg 94%
    18:00 -1°C° 0.9 mm 4 mps 731 mmHg 94%
    19:00 -1°C° 0.9 mm 5 mps 731 mmHg 95%
    20:00 -1°C° 0.9 mm 5 mps 731 mmHg 95%
    21:00 -1°C° 0 mm 5 mps 730 mmHg 94%
    22:00 -1°C° 0 mm 5 mps 730 mmHg 93%
    23:00 -2°C° 0 mm 5 mps 729 mmHg 92%

    27 Marzo, Miércoles

    Tiempo Temperatura Precipitaciones Viento Presión Humedad
    00:00 -3°C° 0.1 mm 6 mps 729 mmHg 92%
    01:00 -4°C° 0.1 mm 6 mps 729 mmHg 91%
    02:00 -4°C° 0.1 mm 6 mps 729 mmHg 90%
    03:00 -5°C° 0.1 mm 6 mps 729 mmHg 90%
    04:00 -5°C° 0.1 mm 6 mps 729 mmHg 89%
    05:00 -5°C° 0.1 mm 6 mps 729 mmHg 88%
    06:00 -5°C° 0 mm 5 mps 729 mmHg 89%
    07:00 -2°C° 0 mm 3 mps 730 mmHg 89%
    08:00 -2°C° 0 mm 2 mps 730 mmHg 90%
    09:00 -2°C° 0.4 mm 4 mps 731 mmHg 91%
    10:00 -2°C° 0.4 mm 5 mps 732 mmHg 91%
    11:00 -2°C° 0.4 mm 6 mps 732 mmHg 92%
    12:00 -2°C° 0.3 mm 7 mps 733 mmHg 90%
    13:00 -2°C° 0.3 mm 8 mps 734 mmHg 88%
    14:00 -2°C° 0.3 mm 8 mps 735 mmHg 86%
    15:00 -2°C° 0.1 mm 8 mps 736 mmHg 85%
    16:00 -2°C° 0.1 mm 8 mps 737 mmHg 84%
    17:00 -2°C° 0.1 mm 8 mps 738 mmHg 83%
    18:00 -4°C° 0 mm 8 mps 739 mmHg 83%
    19:00 -3°C° 0 mm 7 mps 740 mmHg 84%
    20:00 -4°C° 0 mm 7 mps 741 mmHg 84%
    21:00 -4°C° 0 mm 6 mps 741 mmHg 85%
    22:00 -5°C° 0 mm 6 mps 741 mmHg 86%
    23:00 -5°C° 0 mm 6 mps 742 mmHg 86%

    28 Marzo, Jueves

    Tiempo Temperatura Precipitaciones Viento Presión Humedad
    00:00 -6°C° 0 mm 6 mps 742 mmHg 86%
    01:00 -6°C° 0 mm 5 mps 742 mmHg 86%
    02:00 -7°C° 0 mm 5 mps 743 mmHg 85%
    03:00 -7°C° 0 mm 5 mps 743 mmHg 85%
    04:00 -7°C° 0 mm 5 mps 743 mmHg 84%
    05:00 -7°C° 0 mm 5 mps 743 mmHg 84%
    06:00 -6°C° 0.1 mm 5 mps 743 mmHg 84%
    07:00 -6°C° 0.1 mm 6 mps 743 mmHg 85%
    08:00 -5°C° 0.1 mm 6 mps 743 mmHg 86%
    09:00 -5°C° 0.1 mm 6 mps 743 mmHg 85%
    10:00 -4°C° 0.1 mm 6 mps 743 mmHg 85%
    11:00 -3°C° 0.1 mm 6 mps 743 mmHg 84%
    12:00 -2°C° 0.1 mm 6 mps 743 mmHg 84%
    13:00 -2°C° 0.1 mm 6 mps 743 mmHg 84%
    14:00 -1°C° 0.1 mm 6 mps 743 mmHg 84%
    15:00 -1°C° 0 mm 5 mps 743 mmHg 85%
    16:00 -1°C° 0 mm 5 mps 742 mmHg 86%
    17:00 -1°C° 0 mm 5 mps 742 mmHg 87%
    18:00 -1°C° 0 mm 5 mps 742 mmHg 88%
    19:00 -1°C° 0 mm 5 mps 741 mmHg 89%
    20:00 -1°C° 0 mm 5 mps 741 mmHg 90%
    21:00 -1°C° 0.2 mm 5 mps 741 mmHg 89%
    22:00 -2°C° 0.2 mm 6 mps 740 mmHg 88%
    23:00 -2°C° 0.2 mm 6 mps 740 mmHg 88%
    Mostrar más